Overview Statistics Trail Chart Weather Telemetry Raw packets
 

This is the latest recevied weather packets stored in our database for station/object HG8LXL-2. If no packets are shown the sender has not sent any weather packets the latest 10 day(s).

<< 15 16 17 18 19 20 21 >>
Time Temp. Humidity Pressure Rain* Wind** Luminosity Snow
1788327951 22.22° C 45% 1017.7 hPa - - - -
1788327660 21.67° C 47% 1017.7 hPa - - - -
1788327351 21.11° C 48% 1017.9 hPa - - - -
1788327051 20° C 49% 1017.9 hPa - - - -
1788326751 20° C 51% 1017.9 hPa - - - -
1788326451 19.44° C 53% 1018 hPa - - - -
1788326151 19.44° C 56% 1018 hPa - - - -
1788325851 18.89° C 58% 1018.1 hPa - - - -
1788325551 18.33° C 60% 1018.1 hPa - - - -
1788325251 18.33° C 59% 1018 hPa - - - -
1788324951 18.33° C 59% 1017.9 hPa - - - -
1788324654 17.78° C 61% 1017.9 hPa - - - -
1788324351 17.22° C 63% 1017.9 hPa - - - -
1788324051 17.22° C 63% 1017.9 hPa - - - -
1788323751 17.22° C 61% 1017.7 hPa - - - -
1788323452 17.78° C 60% 1017.7 hPa - - - -
1788323151 17.78° C 59% 1017.6 hPa - - - -
1788322851 17.78° C 59% 1017.7 hPa - - - -
1788322551 17.78° C 59% 1017.6 hPa - - - -
1788322256 17.78° C 60% 1017.6 hPa - - - -
1788321951 17.78° C 60% 1017.7 hPa - - - -
1788321651 17.78° C 61% 1017.8 hPa - - - -
1788321351 17.22° C 62% 1017.9 hPa - - - -
1788321051 17.22° C 61% 1017.9 hPa - - - -
1788320751 17.78° C 60% 1017.8 hPa - - - -

* Rain since midnight (hover to see other rain measurements)
** Current wind speed in m/s (hover to see current wind gust speed)